When you browse on this site, cookies collect data to enhance your experience and personalize the content and advertising you see.
Visit our Privacy Policy to learn more. By continuing to use the site, you agree to this use of cookies and data.
  • Em Portugal
  • Lista de países
  • Para 7 dias
  • Temperatura da água
  • Mapas de satélite
  • Mapa do tempo
  • Widgets de tempo
  • user-avatar
    Iniciar Sessão

    Previsão horária em Pomorie

    Hoje, 22 Julho, Segunda-feira

    Tempo Temperatura Precipitação Vento Pressão Humidade
    00:00 +23°C° 0 mm 1 m/s 764 mmHg 61%
    01:00 +23°C° 0 mm 1 m/s 764 mmHg 57%
    02:00 +23°C° 0 mm 1 m/s 764 mmHg 54%
    03:00 +23°C° 0 mm 1 m/s 763 mmHg 53%
    04:00 +21°C° 0 mm 2 m/s 763 mmHg 52%
    05:00 +21°C° 0 mm 2 m/s 763 mmHg 51%
    06:00 +25°C° 0 mm 1 m/s 763 mmHg 47%
    07:00 +27°C° 0 mm 1 m/s 763 mmHg 43%
    08:00 +29°C° 0 mm 1 m/s 763 mmHg 39%
    09:00 +30°C° 0 mm 1 m/s 763 mmHg 37%
    10:00 +32°C° 0 mm 2 m/s 763 mmHg 34%
    11:00 +34°C° 0 mm 2 m/s 763 mmHg 31%
    12:00 +34°C° 0 mm 3 m/s 763 mmHg 31%
    13:00 +34°C° 0 mm 3 m/s 763 mmHg 30%
    14:00 +35°C° 0 mm 4 m/s 763 mmHg 30%
    15:00 +34°C° 0 mm 4 m/s 762 mmHg 31%
    16:00 +34°C° 0 mm 3 m/s 762 mmHg 32%
    17:00 +33°C° 0 mm 3 m/s 762 mmHg 34%
    18:00 +30°C° 0 mm 2 m/s 762 mmHg 41%
    19:00 +27°C° 0 mm 2 m/s 762 mmHg 48%
    20:00 +25°C° 0 mm 1 m/s 762 mmHg 55%
    21:00 +25°C° 0 mm 1 m/s 762 mmHg 54%
    22:00 +24°C° 0 mm 1 m/s 762 mmHg 54%
    23:00 +24°C° 0 mm 1 m/s 762 mmHg 54%

    Amanhã, 23 Julho, Terça-feira

    Tempo Temperatura Precipitação Vento Pressão Humidade
    00:00 +24°C° 0 mm 1 m/s 761 mmHg 50%
    01:00 +24°C° 0 mm 2 m/s 761 mmHg 47%
    02:00 +24°C° 0 mm 2 m/s 761 mmHg 44%
    03:00 +24°C° 0 mm 2 m/s 761 mmHg 50%
    04:00 +23°C° 0 mm 2 m/s 761 mmHg 57%
    05:00 +23°C° 0 mm 2 m/s 760 mmHg 63%
    06:00 +24°C° 0 mm 2 m/s 760 mmHg 62%
    07:00 +26°C° 0 mm 3 m/s 760 mmHg 61%
    08:00 +27°C° 0 mm 4 m/s 760 mmHg 61%
    09:00 +29°C° 0 mm 4 m/s 760 mmHg 56%
    10:00 +30°C° 0 mm 3 m/s 760 mmHg 51%
    11:00 +33°C° 0 mm 3 m/s 760 mmHg 46%
    12:00 +33°C° 0.7 mm 3 m/s 760 mmHg 49%
    13:00 +31°C° 0.7 mm 3 m/s 759 mmHg 53%
    14:00 +31°C° 0.7 mm 3 m/s 759 mmHg 56%
    15:00 +30°C° 1 mm 4 m/s 759 mmHg 60%
    16:00 +29°C° 1 mm 4 m/s 759 mmHg 64%
    17:00 +28°C° 1 mm 5 m/s 759 mmHg 67%
    18:00 +27°C° 1.1 mm 6 m/s 759 mmHg 74%
    19:00 +24°C° 1.1 mm 6 m/s 759 mmHg 82%
    20:00 +22°C° 1.1 mm 7 m/s 759 mmHg 89%
    21:00 +22°C° 0.2 mm 6 m/s 760 mmHg 88%
    22:00 +22°C° 0.2 mm 5 m/s 760 mmHg 87%
    23:00 +22°C° 0.2 mm 4 m/s 760 mmHg 87%

    Depois de amanhã, 24 Julho, Quarta-feira

    Tempo Temperatura Precipitação Vento Pressão Humidade
    00:00 +21°C° 0 mm 4 m/s 760 mmHg 86%
    01:00 +21°C° 0 mm 4 m/s 760 mmHg 84%
    02:00 +21°C° 0 mm 4 m/s 760 mmHg 83%
    03:00 +20°C° 0.1 mm 5 m/s 760 mmHg 82%
    04:00 +20°C° 0.1 mm 5 m/s 760 mmHg 82%
    05:00 +19°C° 0.1 mm 5 m/s 760 mmHg 81%
    06:00 +20°C° 0 mm 6 m/s 760 mmHg 75%
    07:00 +21°C° 0 mm 6 m/s 761 mmHg 70%
    08:00 +23°C° 0 mm 7 m/s 761 mmHg 64%
    09:00 +24°C° 0 mm 6 m/s 761 mmHg 57%
    10:00 +27°C° 0 mm 6 m/s 761 mmHg 49%
    11:00 +28°C° 0 mm 6 m/s 761 mmHg 42%
    12:00 +29°C° 0 mm 5 m/s 761 mmHg 38%
    13:00 +30°C° 0 mm 5 m/s 761 mmHg 34%
    14:00 +32°C° 0 mm 5 m/s 761 mmHg 31%
    15:00 +30°C° 0 mm 4 m/s 761 mmHg 35%
    16:00 +29°C° 0 mm 4 m/s 761 mmHg 39%
    17:00 +28°C° 0 mm 4 m/s 761 mmHg 43%
    18:00 +26°C° 0 mm 3 m/s 761 mmHg 51%
    19:00 +24°C° 0 mm 2 m/s 761 mmHg 60%
    20:00 +21°C° 0 mm 2 m/s 761 mmHg 69%
    21:00 +20°C° 0 mm 2 m/s 761 mmHg 70%
    22:00 +21°C° 0 mm 1 m/s 762 mmHg 72%
    23:00 +20°C° 0 mm 1 m/s 762 mmHg 73%

    25 Julho, Quinta-feira

    Tempo Temperatura Precipitação Vento Pressão Humidade
    00:00 +19°C° 0 mm 2 m/s 762 mmHg 72%
    01:00 +20°C° 0 mm 2 m/s 761 mmHg 71%
    02:00 +20°C° 0 mm 3 m/s 761 mmHg 69%
    03:00 +19°C° 0 mm 3 m/s 761 mmHg 70%
    04:00 +19°C° 0 mm 2 m/s 761 mmHg 71%
    05:00 +19°C° 0 mm 2 m/s 761 mmHg 71%
    06:00 +21°C° 0 mm 2 m/s 761 mmHg 66%
    07:00 +24°C° 0 mm 2 m/s 762 mmHg 61%
    08:00 +26°C° 0 mm 2 m/s 762 mmHg 55%
    09:00 +28°C° 0 mm 2 m/s 762 mmHg 51%
    10:00 +29°C° 0 mm 3 m/s 762 mmHg 47%
    11:00 +30°C° 0 mm 3 m/s 762 mmHg 42%
    12:00 +30°C° 0 mm 3 m/s 761 mmHg 43%
    13:00 +30°C° 0 mm 3 m/s 761 mmHg 43%
    14:00 +30°C° 0 mm 3 m/s 761 mmHg 44%
    15:00 +29°C° 0 mm 3 m/s 761 mmHg 47%
    16:00 +29°C° 0 mm 3 m/s 760 mmHg 50%
    17:00 +28°C° 0 mm 3 m/s 760 mmHg 53%
    18:00 +26°C° 0 mm 2 m/s 760 mmHg 60%
    19:00 +25°C° 0 mm 2 m/s 760 mmHg 68%
    20:00 +23°C° 0 mm 2 m/s 760 mmHg 75%
    21:00 +23°C° 0 mm 1 m/s 761 mmHg 77%
    22:00 +22°C° 0 mm 1 m/s 761 mmHg 78%
    23:00 +22°C° 0 mm 1 m/s 761 mmHg 79%

    26 Julho, Sexta-feira

    Tempo Temperatura Precipitação Vento Pressão Humidade
    00:00 +22°C° 0 mm 1 m/s 760 mmHg 76%
    01:00 +21°C° 0 mm 2 m/s 760 mmHg 73%
    02:00 +21°C° 0 mm 2 m/s 760 mmHg 70%
    03:00 +21°C° 0 mm 2 m/s 760 mmHg 69%
    04:00 +21°C° 0 mm 2 m/s 760 mmHg 68%
    05:00 +21°C° 0 mm 2 m/s 760 mmHg 67%
    06:00 +23°C° 0 mm 2 m/s 760 mmHg 64%
    07:00 +24°C° 0 mm 2 m/s 760 mmHg 61%
    08:00 +25°C° 0 mm 2 m/s 760 mmHg 57%
    09:00 +27°C° 0 mm 2 m/s 760 mmHg 52%
    10:00 +29°C° 0 mm 3 m/s 760 mmHg 46%
    11:00 +31°C° 0 mm 3 m/s 760 mmHg 40%
    12:00 +30°C° 0 mm 3 m/s 759 mmHg 42%
    13:00 +30°C° 0 mm 4 m/s 759 mmHg 43%
    14:00 +30°C° 0 mm 4 m/s 759 mmHg 44%
    15:00 +30°C° 0 mm 4 m/s 759 mmHg 45%
    16:00 +30°C° 0 mm 5 m/s 759 mmHg 46%
    17:00 +30°C° 0 mm 5 m/s 759 mmHg 47%
    18:00 +28°C° 0 mm 4 m/s 759 mmHg 58%
    19:00 +25°C° 0 mm 3 m/s 759 mmHg 69%
    20:00 +23°C° 0 mm 2 m/s 759 mmHg 80%
    21:00 +23°C° 0 mm 2 m/s 759 mmHg 82%
    22:00 +21°C° 0 mm 2 m/s 759 mmHg 83%
    23:00 +22°C° 0 mm 1 m/s 759 mmHg 85%

    27 Julho, Sábado

    Tempo Temperatura Precipitação Vento Pressão Humidade
    00:00 +21°C° 0 mm 2 m/s 759 mmHg 84%
    01:00 +21°C° 0 mm 2 m/s 759 mmHg 82%
    02:00 +21°C° 0 mm 3 m/s 759 mmHg 81%
    03:00 +20°C° 0 mm 3 m/s 759 mmHg 81%
    04:00 +20°C° 0 mm 3 m/s 759 mmHg 82%
    05:00 +20°C° 0 mm 3 m/s 759 mmHg 83%
    06:00 +21°C° 0 mm 3 m/s 758 mmHg 77%
    07:00 +23°C° 0 mm 4 m/s 758 mmHg 71%
    08:00 +26°C° 0 mm 4 m/s 758 mmHg 65%
    09:00 +27°C° 0 mm 4 m/s 758 mmHg 60%
    10:00 +29°C° 0 mm 4 m/s 758 mmHg 54%
    11:00 +30°C° 0 mm 5 m/s 758 mmHg 49%
    12:00 +30°C° 0 mm 5 m/s 758 mmHg 50%
    13:00 +30°C° 0 mm 4 m/s 758 mmHg 51%
    14:00 +29°C° 0 mm 4 m/s 758 mmHg 53%
    15:00 +29°C° 0 mm 4 m/s 757 mmHg 54%
    16:00 +29°C° 0 mm 4 m/s 757 mmHg 55%
    17:00 +29°C° 0 mm 4 m/s 757 mmHg 57%
    18:00 +27°C° 0 mm 3 m/s 757 mmHg 65%
    19:00 +25°C° 0 mm 2 m/s 757 mmHg 74%
    20:00 +23°C° 0 mm 1 m/s 757 mmHg 83%
    21:00 +23°C° 0 mm 2 m/s 757 mmHg 84%
    22:00 +21°C° 0 mm 2 m/s 757 mmHg 86%
    23:00 +21°C° 0 mm 2 m/s 757 mmHg 87%
    Mostrar mais